Regional Weather Roundup
Issued by NWS Midland/Odessa, TX

Home | Current Version | Previous Version | Text Only | Print | Product List | Glossary On
Versions: 1 2 3 4 5 6 7 8 9 10 11 12 13 14 15 16 17 18 19 20 21 22 23 24 25 26 27 28 29 30 31 32 33 34 35 36 37 38 39 40 41 42 43 44 45 46 47 48 49 50
000
ASUS44 KMAF 261310
RWRMAF
MIDLAND AREA WEATHER ROUNDUP
NATIONAL WEATHER SERVICE MIDLAND TX
800 AM CDT SUN APR 26 2015

...IN SOUTHWEST TEXAS AND SOUTHEAST NEW MEXICO...

CITY           SKY/WX    TMP DP  RH WIND       PRES   REMARKS
ALPINE         CLEAR     51  29  44 SW8       29.89S
ANDREWS        FAIR      60  43  52 SW9       29.74S
ARTESIA        PTCLDY    57  27  30 S9        29.74R
BIG SPRING     SUNNY     61  40  45 SE6       29.76R
CARLSBAD       MOCLDY    48  32  53 CALM      29.73R
DRYDEN           N/A     64  52  64 NW8       29.71R
FORT STOCKTON  CLEAR     58  30  34 SW13      29.75R
GUAD PASS      CLOUDY    56  20  24 W16       29.84R
HOBBS          CLEAR     48  32  53 CALM      29.76R
MARFA          CLEAR     43  32  65 E5        29.87R
MIDLAND AIRPK  CLEAR     62  46  55 SW5       29.75R
MIDLAND INTL   CLEAR     59  46  62 SW3       29.74
ODESSA         CLEAR     58  45  62 SW5       29.75R
PECOS          PTCLDY    48  29  47 CALM      29.74R
PRESIDIO       FAIR      60  27  27 MISG      29.79R
SEMINOLE       CLEAR     51  31  45 SW5       29.75S
SNYDER         SUNNY     56  44  63 S5        29.73S
WINK           PTCLDY    50  28  42 CALM      29.72S
$$
...OTHER STATIONS IN TEXAS...

CITY           SKY/WX    TMP DP  RH WIND       PRES   REMARKS
ABILENE        SUNNY     63  46  54 S3        29.71S
AMARILLO       PTSUNNY   54  33  45 SW9       29.72R
AUSTIN         CLOUDY    70  68  93 S6        29.72F
BROWNSVILLE    CLOUDY    80  78  94 SE7       29.68R FOG
CORPUS CHRISTI CLOUDY    77  74  90 NE5       29.70S FOG
DALLAS FTW     MOSUNNY   63  59  87 S8        29.68R
DEL RIO        CLOUDY    73  70  90 SE10      29.68R FOG
EL PASO        CLOUDY    61  26  26 SW13      29.77S
HOUSTON INT    PTSUNNY   72  69  90 CALM      29.73F
LUBBOCK        PTSUNNY   55  35  47 S3        29.73R
SAN ANGELO     SUNNY     62  56  80 S6        29.70R
SAN ANTONIO    PTSUNNY   73  68  84 CALM      29.72F
WACO           MOSUNNY   70  67  90 S7        29.72R
WICHITA FALLS  NOT AVBL
$$
...OTHER LOCATIONS IN NEW MEXICO...

CITY           SKY/WX    TMP DP  RH WIND       PRES   REMARKS
ALAMAGORDO     CLOUDY    57  25  28 S8        29.77S
ALBUQUERQUE    RAIN      47  41  80 W7        29.79R
CANNON AFB     CLOUDY    49  27  41 CALM      29.74R
CLOVIS         CLOUDY    48  27  43 W6        29.75R
HOLLOMAN AFB   CLOUDY    60  25  26 S6        29.76R
ROSWELL        PTCLDY    55  28  35 S12       29.71R
RUIDOSO        MOCLDY    48  19  32 NW7       29.82S
SANTA FE       CLOUDY    46  32  58 N5        29.77S
TRUTH OR CONSE PTCLDY    53  31  42 SW8       29.74R
TUCUMCARI      CLOUDY    50  28  42 SW3       29.70R
$$


USA.gov is the U.S. government's official web portal to all federal, state and local government web resources and services.